Location: Betra
(48.4113°N, 8.6634°E)
Time: 19:16:52
(UTC+00:00)

Nadezhda 1 Rocket - Pass Details

Date: 23 May 2024
Orbit: 941 x 1004 km, 83.0° (Epoch: 16 June)

Event Time Altitude Azimuth Distance (km) Brightness Sun altitude
Rises 01:04:59 0° 349° (N) 3,743 8.0 -17.2°
Reaches altitude 10° 01:07:33 10° 347° (NNW) 2,790 7.1 -17.0°
Maximum altitude 01:13:56 72° 265° (W) 1,053 4.0 -16.6°
Enters shadow 01:18:19 21° 185° (S) 2,062 5.2 -16.2°
